EW5859 Weather Reports


time (UTC)temp
F
wind
direction
speed
knots
gust
knots
rain 1hr
in
rain 24hr
in
rain mn
in
humidity
%
barometer
mb
20260507154514 63 360 0.9 7.8 0.00 0.00 0.00 58 1017.1
20260507153004 63 360 3.5 9.6 0.00 0.00 0.00 56 1017.1
20260507151603 61 360 4.3 11.3 0.00 0.00 0.00 56 1017.3
20260507150011 61 360 3.5 9.6 0.00 0.00 0.00 62 1017.3
20260507144511 60 360 1.7 7.8 0.00 0.00 0.00 62 1017.5
20260507143103 59 360 0.9 7.8 0.00 0.00 0.00 66 1017.6
20260507141525 58 360 0.9 7.0 0.00 0.00 0.00 67 1017.7
20260507140022 57 360 2.6 5.2 0.00 0.00 0.00 66 1017.7
20260507134546 55 360 1.7 7.8 0.00 0.00 0.00 68 1017.8
20260507133056 53 360 0.9 5.2 0.00 0.00 0.00 71 1017.8
20260507131550 51 360 1.7 3.5 0.00 0.00 0.00 76 1017.9
20260507130036 48 360 0.0 2.6 0.00 0.00 0.00 84 1018.1
20260507124535 44 360 0.0 2.6 0.00 0.00 0.00 91 1018.1
20260507123002 42 360 0.0 1.7 0.00 0.00 0.00 92 1018.0
20260507121510 40 360 0.0 1.7 0.00 0.00 0.00 92 1018.1
20260507120046 37 77 0.0 1.7 0.00 0.00 0.00 92 1017.9
20260507114600 35 360 0.0 0.9 0.00 0.00 0.00 91 1017.8
20260507113012 35 360 0.0 0.0 0.00 0.00 0.00 91 1017.7
20260507111547 35 360 0.0 0.0 0.00 0.00 0.00 91 1017.6
20260507110031 35 360 0.0 0.0 0.00 0.00 0.00 91 1017.6
20260507104546 36 360 0.0 0.9 0.00 0.00 0.00 91 1017.5
20260507103052 36 360 0.0 0.9 0.00 0.00 0.00 90 1017.6
20260507101535 36 360 0.0 0.9 0.00 0.00 0.00 90 1017.6
20260507100035 36 360 0.0 0.9 0.00 0.00 0.00 89 1017.8
20260507094602 37 360 0.0 0.0 0.00 0.00 0.00 89 1017.9
20260507093036 37 360 0.0 0.0 0.00 0.00 0.00 89 1017.9
20260507091606 37 360 0.0 0.0 0.00 0.00 0.00 90 1017.9
20260507090051 38 360 0.0 0.9 0.00 0.00 0.00 89 1017.9
20260507084507 38 360 0.0 0.0 0.00 0.01 0.00 89 1017.7
20260507083015 38 360 0.0 0.0 0.00 0.01 0.00 90 1017.8
20260507081501 39 360 0.0 0.0 0.00 0.01 0.00 90 1017.8
20260507080050 39 360 0.0 0.0 0.00 0.01 0.00 90 1017.7
20260507074550 39 360 0.0 0.0 0.00 0.02 0.00 90 1017.8
20260507073059 39 360 0.0 0.0 0.00 0.02 0.00 90 1017.9
20260507071550 39 360 0.0 0.0 0.00 0.02 0.00 90 1018.0
20260507070015 39 360 0.0 0.0 0.00 0.02 0.00 90 1018.3
20260507064501 39 360 0.0 0.0 0.00 0.02 0.00 90 1018.4
20260507063140 39 360 0.0 0.0 0.00 0.02 0.00 90 1018.5
20260507061502 38 360 0.0 0.9 0.00 0.02 0.00 89 1018.6
20260507060052 38 360 0.0 0.0 0.00 0.02 0.00 87 1018.5
20260507054552 38 360 0.0 0.0 0.00 0.02 0.00 87 1018.6
20260507053029 39 360 0.0 0.0 0.00 0.02 0.00 86 1018.5
20260507051522 39 360 0.0 0.0 0.00 0.02 0.00 86 1018.4
20260507050029 39 360 0.0 0.0 0.00 0.02 0.00 86 1018.6
20260507044503 40 360 0.0 0.0 0.00 0.02 0.02 86 1018.6
20260507043021 40 360 0.0 1.7 0.00 0.02 0.02 86 1018.5
20260507041527 41 360 0.0 0.9 0.00 0.02 0.02 84 1018.7
20260507040101 41 360 0.0 0.0 0.00 0.02 0.02 84 1018.8
20260507034507 42 360 0.0 0.0 0.00 0.02 0.02 83 1018.7
20260507033029 43 360 0.0 0.0 0.00 0.02 0.02 82 1018.6
20260507031516 43 360 0.0 0.0 0.00 0.02 0.02 81 1018.6
20260507030008 44 360 0.0 0.9 0.00 0.02 0.02 80 1018.5
20260507024521 45 360 0.0 0.0 0.00 0.02 0.02 78 1018.3
20260507023034 46 360 0.0 0.0 0.00 0.02 0.02 76 1018.3
20260507021607 48 323 0.0 0.0 0.00 0.02 0.02 74 1018.1
20260507020104 50 323 0.0 0.9 0.00 0.02 0.02 69 1018.0
20260507014621 51 360 0.0 0.9 0.00 0.02 0.02 67 1017.8
20260507013003 53 360 0.0 0.0 0.00 0.02 0.02 63 1017.7
20260507011539 54 360 0.0 0.0 0.00 0.02 0.02 56 1017.5
20260507010107 55 360 0.9 2.6 0.00 0.02 0.02 49 1017.5
20260507004513 56 360 1.7 4.3 0.00 0.02 0.02 46 1017.4
20260507003001 57 360 1.7 7.0 0.00 0.02 0.02 42 1017.3
20260507001519 57 360 2.6 7.0 0.00 0.02 0.02 43 1017.3
20260507000047 58 360 2.6 7.0 0.00 0.02 0.02 40 1017.3
20260506234515 59 360 4.3 8.7 0.00 0.02 0.02 39 1017.3
20260506233028 60 360 4.3 7.8 0.00 0.02 0.02 39 1017.2
20260506231543 60 360 1.7 5.2 0.00 0.02 0.02 40 1017.2
20260506230104 60 360 5.2 9.6 0.00 0.02 0.02 41 1017.3
20260506224508 60 360 3.5 7.8 0.00 0.02 0.02 38 1017.2
20260506223021 60 360 5.2 9.6 0.00 0.02 0.02 39 1017.3
20260506221547 60 360 4.3 12.2 0.00 0.02 0.02 38 1017.3
20260506220008 60 360 5.2 11.3 0.00 0.02 0.02 39 1017.5
20260506214525 60 360 5.2 10.4 0.00 0.04 0.02 38 1017.7
20260506213040 60 360 3.5 10.4 0.00 0.04 0.02 39 1017.8
20260506211511 60 360 6.1 10.4 0.00 0.04 0.02 41 1017.9
20260506210008 59 360 7.8 13.9 0.00 0.04 0.02 42 1018.2
20260506204554 59 360 6.1 10.4 0.00 0.11 0.02 41 1018.2
20260506203004 59 360 4.3 13.0 0.00 0.11 0.02 41 1018.3
20260506201515 59 343 6.1 10.4 0.00 0.11 0.02 42 1018.6
20260506200035 59 360 6.1 10.4 0.00 0.11 0.02 42 1018.6
20260506194519 58 360 4.3 9.6 0.00 0.20 0.02 45 1018.8
20260506193030 58 360 4.3 11.3 0.00 0.20 0.02 43 1019.0
20260506191604 57 360 5.2 9.6 0.00 0.20 0.02 43 1019.1
20260506190016 57 355 3.5 9.6 0.00 0.20 0.02 44 1019.2
20260506184552 56 360 5.2 8.7 0.00 0.21 0.02 43 1019.4
20260506183029 57 360 5.2 11.3 0.00 0.21 0.02 42 1019.4
20260506181501 57 360 7.0 12.2 0.00 0.21 0.02 46 1019.3
20260506180005 57 360 3.5 9.6 0.00 0.21 0.02 44 1019.6
20260506174604 56 17 4.3 8.7 0.00 0.22 0.02 46 1019.8
20260506173046 57 360 4.3 9.6 0.00 0.22 0.02 44 1019.9
20260506171506 57 360 7.8 11.3 0.00 0.22 0.02 44 1019.9
20260506170019 57 360 5.2 12.2 0.00 0.22 0.02 45 1019.5
20260506164508 57 360 6.1 16.5 0.00 0.23 0.02 45 1019.6
20260506163038 57 360 6.1 11.3 0.00 0.23 0.02 52 1019.3
20260506161600 56 14 7.8 14.8 0.00 0.23 0.02 49 1019.1
20260506160030 56 360 6.1 9.6 0.00 0.23 0.02 53 1019.3